Change the Weather History Date:

Friday, November 1, 2013

  Actual Average Record
Temperature  
Mean Temperature 48 °F -  
Max Temperature 55 °F 48 °F 70 °F (2008)
Min Temperature 40 °F 33 °F 15 °F (2002)
Degree Days  
Heating Degree Days 18    
Moisture  
Dew Point 33 °F    
Average Humidity 59    
Maximum Humidity 74    
Minimum Humidity 41    
Precipitation  
Precipitation 0.00 in - - ()
Sea Level Pressure  
Sea Level Pressure 30.22 in    
Wind  
Wind Speed 7 mph (SW)    
Max Wind Speed 12 mph    
Max Gust Speed -    
Visibility 10 miles    
Events      
Averages and records for this station are not official NWS values.
T = Trace of Precipitation, MM = Missing Value Source: NWS Daily Summary

Daily Weather History Graph

Daily Weather History Graph

Search for Another Location

Airport or City:

Trip Planner

Search our weather history database for the weather conditions in past years. The results will help you decide how hot, cold, wet, or windy it might be!

Date:

Astronomy

Nov. 01, 2013 Rise Set
Actual Time 7:59 AM MDT 6:23 PM MDT
Civil Twilight 7:30 AM MDT 6:51 PM MDT
Nautical Twilight 6:58 AM MDT 7:24 PM MDT
Astronomical Twilight 6:26 AM MDT 7:56 PM MDT
Moon 5:54 AM MDT (11/1) 5:18 PM MDT (11/1)
Length of Visible Light 11h 20m
Length of Day
10h 23m
Waning Crescent, 4% of the Moon is Illuminated
Nov 1
Waning Crescent
Nov 3
New
Nov 9
First Quarter
Nov 17
Full
Nov 25
Last Quarter

Hourly Weather History & Observations

Time (MDT) Temp. Windchill Dew Point Humidity Pressure Visibility Wind Dir Wind Speed Gust Speed Precip Events Conditions
12:03 AM 46.4 °F 41.5 °F 32.0 °F 57% 30.18 in 10.0 mi SSW 10.4 mph - N/A   Overcast
12:28 AM 46.4 °F 41.5 °F 32.0 °F 57% 30.18 in 10.0 mi SW 10.4 mph - N/A   Overcast
12:33 AM 46.4 °F 41.5 °F 32.0 °F 57% 30.18 in 10.0 mi SSW 10.4 mph - N/A   Overcast
12:38 AM 46.4 °F 41.5 °F 32.0 °F 57% 30.18 in 10.0 mi SSW 10.4 mph - N/A   Overcast
12:58 AM 46.6 °F - 33.1 °F 59% 30.14 in 10.0 mi SW 9.2 mph - N/A   Overcast
1:08 AM 46.4 °F 42.4 °F 32.0 °F 57% 30.18 in 10.0 mi SW 8.1 mph - N/A   Overcast
1:18 AM 46.4 °F 42.4 °F 32.0 °F 57% 30.18 in 10.0 mi SSW 8.1 mph - N/A   Overcast
1:23 AM 46.4 °F 42.4 °F 32.0 °F 57% 30.18 in 10.0 mi SW 8.1 mph - N/A   Overcast
1:28 AM 46.4 °F 42.4 °F 32.0 °F 57% 30.19 in 10.0 mi SW 8.1 mph - N/A   Overcast
1:58 AM 46.9 °F - 36.0 °F 66% 30.16 in 10.0 mi West 6.9 mph - N/A   Overcast
2:13 AM 46.4 °F 41.5 °F 37.4 °F 71% 30.19 in 10.0 mi West 10.4 mph - N/A   Overcast
2:58 AM 45.9 °F 42.3 °F 36.1 °F 69% 30.16 in 10.0 mi West 6.9 mph - N/A   Mostly Cloudy
3:03 AM 44.6 °F 40.7 °F 35.6 °F 71% 30.21 in 10.0 mi West 6.9 mph - N/A   Scattered Clouds
3:18 AM 44.6 °F 41.4 °F 35.6 °F 71% 30.22 in 10.0 mi West 5.8 mph - N/A   Mostly Cloudy
3:58 AM 45.1 °F 42.0 °F 34.9 °F 67% 30.18 in 10.0 mi West 5.8 mph - N/A   Overcast
4:18 AM 42.8 °F 39.3 °F 33.8 °F 70% 30.22 in 10.0 mi WNW 5.8 mph - N/A   Scattered Clouds
4:23 AM 42.8 °F 39.3 °F 32.0 °F 66% 30.22 in 10.0 mi WNW 5.8 mph - N/A   Mostly Cloudy
4:58 AM 44.6 °F 41.4 °F 33.4 °F 65% 30.20 in 10.0 mi WNW 5.8 mph - N/A   Overcast
5:58 AM 44.2 °F - 33.3 °F 65% 30.21 in 10.0 mi NE 2.3 mph - N/A   Mostly Cloudy
6:33 AM 42.8 °F 41.1 °F 32.0 °F 66% 30.27 in 10.0 mi WSW 3.5 mph - N/A   Overcast
6:38 AM 42.8 °F - 32.0 °F 66% 30.27 in 10.0 mi WSW 2.3 mph - N/A   Overcast
6:58 AM 42.4 °F - 33.4 °F 70% 30.24 in 10.0 mi SSE 1.2 mph - N/A   Overcast
7:58 AM 43.0 °F 40.3 °F 32.9 °F 68% 30.25 in 10.0 mi SSE 4.6 mph - N/A   Partly Cloudy
8:58 AM 40.3 °F 37.1 °F 32.7 °F 74% 30.28 in 10.0 mi South 4.6 mph - N/A   Clear
9:43 AM 44.6 °F - 35.6 °F 71% 30.32 in 10.0 mi WNW 2.3 mph - N/A   Mostly Cloudy
9:58 AM 45.5 °F 43.2 °F 35.6 °F 68% 30.29 in 10.0 mi SSE 4.6 mph - N/A   Overcast
10:58 AM 47.5 °F - 36.0 °F 64% 30.27 in 10.0 mi SSW 8.1 mph - N/A   Scattered Clouds
11:58 AM 50.9 °F - 36.0 °F 57% 30.27 in 10.0 mi SW 4.6 mph - N/A   Clear
12:58 PM 52.5 °F - 33.1 °F 48% 30.26 in 10.0 mi NW 4.6 mph - N/A   Scattered Clouds
1:23 PM 51.8 °F - 32.0 °F 47% 30.31 in 10.0 mi NNE 2.3 mph - N/A   Mostly Cloudy
1:26 PM 53.6 °F - 32.0 °F 44% 30.31 in 10.0 mi Variable 2.3 mph - N/A   Scattered Clouds
1:58 PM 53.8 °F - 33.8 °F 47% 30.21 in 10.0 mi NE 6.9 mph - N/A   Scattered Clouds
2:58 PM 54.1 °F - 33.6 °F 46% 30.20 in 10.0 mi North 4.6 mph - N/A   Mostly Cloudy
3:47 PM 55.4 °F - 32.0 °F 41% 30.27 in 10.0 mi SW 5.8 mph - N/A   Scattered Clouds
3:58 PM 55.0 °F - 33.1 °F 43% 30.20 in 10.0 mi SW 8.1 mph - N/A   Partly Cloudy
4:58 PM 54.0 °F - 30.6 °F 41% 30.20 in 10.0 mi WSW 11.5 mph - N/A   Clear
5:58 PM 52.0 °F - 30.4 °F 44% 30.22 in 10.0 mi West 6.9 mph - N/A   Clear
6:58 PM 48.0 °F - 30.6 °F 51% 30.23 in 10.0 mi SSW 2.3 mph - N/A   Clear
7:58 PM 45.3 °F 41.6 °F 31.6 °F 59% 30.23 in 10.0 mi SSE 6.9 mph - N/A   Clear
8:58 PM 44.6 °F 41.4 °F 30.4 °F 57% 30.23 in 10.0 mi ESE 5.8 mph - N/A   Clear
9:58 PM 43.9 °F 39.3 °F 30.2 °F 59% 30.21 in 10.0 mi ESE 8.1 mph - N/A   Clear
10:58 PM 41.0 °F 36.4 °F 29.1 °F 63% 30.23 in 10.0 mi SSE 6.9 mph - N/A   Clear
11:58 PM 42.1 °F 35.7 °F 30.0 °F 62% 30.19 in 10.0 mi ESE 11.5 mph - N/A   Clear